{"data":{"norad_id":48150,"intl_designator":"2021-027BL","name":"STARLINK-2493","alt_names":[],"object_type":"PAYLOAD","status":"ACTIVE","operator":null,"country":"US","launch_date":"2021-04-07","launch_site_code":"AFETR","launch_vehicle":null,"mission":null,"orbit_class":"UNKNOWN","rcs_meters":null,"size_class":null,"mass_kg":null,"dimensions":null,"purposes":["comms"],"wikipedia_slug":null,"has_3d_model":false,"image_url":null,"decayed_at":null,"tle_current":{"epoch":"2026-05-24T11:07:13.262880Z","epoch_age_seconds":124558,"freshness":"FRESH","line1":"1 48150U 21027BL  26144.46334795  .00005661  00000+0  19390-3 0  9990","line2":"2 48150  53.1580 160.3362 0001089  84.8654 275.2471 15.31722951284295","mean_motion":15.31722951,"eccentricity":0.0001089,"inclination_deg":53.158,"raan_deg":160.3362,"arg_perigee_deg":84.8654,"mean_anomaly_deg":275.2471,"bstar":0.0001939,"rev_number":28429,"period_min":94.011779288146,"perigee_km":469.92574508879,"apogee_km":471.41741559759,"semimajor_km":6848.8085803432,"source":"CELESTRAK","updated_at":"2026-05-25T13:38:16.652094Z"}}}